When you browse on this site, cookies collect data to enhance your experience and personalize the content and advertising you see.
Visit our Privacy Policy to learn more. By continuing to use the site, you agree to this use of cookies and data.
  • In Switzerland
  • List of Countries
  • For 7 days
  • Water Temperature
  • Satellite Maps
  • Weather Map
  • Weather Widgets
  • user-avatar
    Login

    Hourly Weather Suhl

    Today, 24 May, Friday

    Time Temperature Precipitation Wind Pressure Humidity
    00:00 +10°C° 0 mm 1 mps 716 mmHg 88%
    01:00 +9°C° 0 mm 1 mps 716 mmHg 90%
    02:00 +9°C° 0 mm 1 mps 716 mmHg 90%
    03:00 +9°C° 0 mm 1 mps 716 mmHg 91%
    04:00 +9°C° 0 mm 1 mps 716 mmHg 92%
    05:00 +10°C° 0 mm 1 mps 716 mmHg 86%
    06:00 +12°C° 0 mm 1 mps 716 mmHg 81%
    07:00 +14°C° 0 mm 1 mps 716 mmHg 75%
    08:00 +15°C° 0 mm 1 mps 716 mmHg 69%
    09:00 +18°C° 0 mm 1 mps 716 mmHg 63%
    10:00 +19°C° 0 mm 2 mps 717 mmHg 57%
    11:00 +20°C° 0.2 mm 1 mps 716 mmHg 58%
    12:00 +20°C° 0.2 mm 1 mps 716 mmHg 58%
    13:00 +21°C° 0.2 mm 1 mps 716 mmHg 59%
    14:00 +20°C° 0.6 mm 1 mps 716 mmHg 63%
    15:00 +20°C° 0.6 mm 1 mps 715 mmHg 67%
    16:00 +18°C° 0.6 mm 0 mps 715 mmHg 71%
    17:00 +17°C° 0.4 mm 0 mps 714 mmHg 76%
    18:00 +18°C° 0.4 mm 1 mps 714 mmHg 81%
    19:00 +16°C° 0.4 mm 1 mps 714 mmHg 85%
    20:00 +15°C° 0.2 mm 1 mps 714 mmHg 87%
    21:00 +13°C° 0.2 mm 1 mps 714 mmHg 89%
    22:00 +11°C° 0.2 mm 0 mps 714 mmHg 91%
    23:00 +11°C° 0 mm 0 mps 714 mmHg 92%

    Tomorrow, 25 May, Saturday

    Time Temperature Precipitation Wind Pressure Humidity
    00:00 +10°C° 0 mm 0 mps 714 mmHg 92%
    01:00 +10°C° 0 mm 0 mps 714 mmHg 93%
    02:00 +10°C° 0 mm 0 mps 714 mmHg 93%
    03:00 +10°C° 0 mm 0 mps 714 mmHg 94%
    04:00 +9°C° 0 mm 0 mps 714 mmHg 95%
    05:00 +11°C° 0 mm 1 mps 715 mmHg 94%
    06:00 +12°C° 0 mm 1 mps 715 mmHg 93%
    07:00 +13°C° 0 mm 1 mps 715 mmHg 92%
    08:00 +14°C° 0.4 mm 1 mps 715 mmHg 90%
    09:00 +15°C° 0.4 mm 1 mps 715 mmHg 87%
    10:00 +16°C° 0.4 mm 2 mps 715 mmHg 85%
    11:00 +16°C° 0.7 mm 2 mps 715 mmHg 83%
    12:00 +16°C° 0.7 mm 2 mps 715 mmHg 80%
    13:00 +16°C° 0.7 mm 1 mps 715 mmHg 77%
    14:00 +16°C° 0.7 mm 2 mps 715 mmHg 77%
    15:00 +16°C° 0.7 mm 2 mps 715 mmHg 77%
    16:00 +16°C° 0.7 mm 2 mps 714 mmHg 77%
    17:00 +16°C° 0.2 mm 1 mps 714 mmHg 80%
    18:00 +15°C° 0.2 mm 1 mps 714 mmHg 82%
    19:00 +14°C° 0.2 mm 1 mps 714 mmHg 84%
    20:00 +13°C° 0.1 mm 1 mps 714 mmHg 88%
    21:00 +12°C° 0.1 mm 1 mps 714 mmHg 91%
    22:00 +10°C° 0.1 mm 1 mps 714 mmHg 94%
    23:00 +10°C° 0.1 mm 1 mps 714 mmHg 95%

    Day after tomorrow, 26 May, Sunday

    Time Temperature Precipitation Wind Pressure Humidity
    00:00 +8°C° 0.1 mm 0 mps 714 mmHg 95%
    01:00 +8°C° 0.1 mm 0 mps 714 mmHg 96%
    02:00 +7°C° 0 mm 0 mps 714 mmHg 96%
    03:00 +7°C° 0 mm 0 mps 714 mmHg 96%
    04:00 +7°C° 0 mm 0 mps 714 mmHg 96%
    05:00 +9°C° 0 mm 1 mps 714 mmHg 93%
    06:00 +10°C° 0 mm 1 mps 714 mmHg 91%
    07:00 +12°C° 0 mm 1 mps 714 mmHg 88%
    08:00 +13°C° 0.1 mm 2 mps 714 mmHg 82%
    09:00 +12°C° 0.1 mm 3 mps 715 mmHg 77%
    10:00 +13°C° 0.1 mm 4 mps 715 mmHg 71%
    11:00 +14°C° 0 mm 4 mps 715 mmHg 66%
    12:00 +15°C° 0 mm 4 mps 715 mmHg 62%
    13:00 +17°C° 0 mm 4 mps 714 mmHg 57%
    14:00 +14°C° 0.1 mm 4 mps 714 mmHg 66%
    15:00 +13°C° 0.1 mm 4 mps 714 mmHg 76%
    16:00 +11°C° 0.1 mm 4 mps 713 mmHg 85%
    17:00 +12°C° 0 mm 3 mps 713 mmHg 86%
    18:00 +12°C° 0 mm 3 mps 713 mmHg 87%
    19:00 +12°C° 0 mm 3 mps 713 mmHg 88%
    20:00 +12°C° 0 mm 3 mps 712 mmHg 91%
    21:00 +11°C° 0 mm 3 mps 712 mmHg 94%
    22:00 +11°C° 0 mm 3 mps 712 mmHg 97%
    23:00 +11°C° 0.1 mm 3 mps 712 mmHg 97%

    27 May, Monday

    Time Temperature Precipitation Wind Pressure Humidity
    00:00 +11°C° 0.1 mm 4 mps 712 mmHg 97%
    01:00 +12°C° 0.1 mm 4 mps 712 mmHg 96%
    02:00 +11°C° 0 mm 4 mps 711 mmHg 95%
    03:00 +11°C° 0 mm 4 mps 711 mmHg 94%
    04:00 +11°C° 0 mm 4 mps 710 mmHg 94%
    05:00 +10°C° 0 mm 5 mps 710 mmHg 93%
    06:00 +10°C° 0 mm 5 mps 710 mmHg 92%
    07:00 +10°C° 0 mm 5 mps 710 mmHg 91%
    08:00 +10°C° 0.3 mm 5 mps 710 mmHg 93%
    09:00 +11°C° 0.3 mm 4 mps 711 mmHg 94%
    10:00 +12°C° 0.3 mm 4 mps 711 mmHg 95%
    11:00 +12°C° 0.4 mm 4 mps 711 mmHg 93%
    12:00 +13°C° 0.4 mm 4 mps 711 mmHg 91%
    13:00 +13°C° 0.4 mm 4 mps 711 mmHg 89%
    14:00 +14°C° 0.2 mm 4 mps 710 mmHg 81%
    15:00 +15°C° 0.2 mm 4 mps 710 mmHg 74%
    16:00 +17°C° 0.2 mm 4 mps 710 mmHg 67%
    17:00 +15°C° 0.1 mm 4 mps 710 mmHg 71%
    18:00 +14°C° 0.1 mm 3 mps 710 mmHg 75%
    19:00 +15°C° 0.1 mm 2 mps 710 mmHg 79%
    20:00 +13°C° 0 mm 2 mps 710 mmHg 84%
    21:00 +11°C° 0 mm 1 mps 711 mmHg 89%
    22:00 +9°C° 0 mm 1 mps 711 mmHg 93%
    23:00 +8°C° 0 mm 0 mps 711 mmHg 94%

    28 May, Tuesday

    Time Temperature Precipitation Wind Pressure Humidity
    00:00 +7°C° 0 mm 0 mps 710 mmHg 94%
    01:00 +7°C° 0 mm 0 mps 710 mmHg 94%
    02:00 +7°C° 0 mm 0 mps 710 mmHg 94%
    03:00 +7°C° 0 mm 0 mps 710 mmHg 94%
    04:00 +7°C° 0 mm 0 mps 710 mmHg 93%
    05:00 +8°C° 0.1 mm 0 mps 710 mmHg 91%
    06:00 +9°C° 0.1 mm 0 mps 710 mmHg 89%
    07:00 +11°C° 0.1 mm 1 mps 710 mmHg 87%
    08:00 +12°C° 0.2 mm 1 mps 710 mmHg 83%
    09:00 +13°C° 0.2 mm 1 mps 710 mmHg 80%
    10:00 +14°C° 0.2 mm 1 mps 710 mmHg 76%
    11:00 +14°C° 0.4 mm 1 mps 710 mmHg 78%
    12:00 +14°C° 0.4 mm 1 mps 710 mmHg 79%
    13:00 +14°C° 0.4 mm 1 mps 710 mmHg 81%
    14:00 +14°C° 0.4 mm 1 mps 710 mmHg 81%
    15:00 +14°C° 0.4 mm 1 mps 710 mmHg 81%
    16:00 +14°C° 0.4 mm 1 mps 710 mmHg 81%
    17:00 +13°C° 0.4 mm 1 mps 710 mmHg 85%
    18:00 +12°C° 0.4 mm 2 mps 711 mmHg 89%
    19:00 +12°C° 0.4 mm 2 mps 711 mmHg 94%
    20:00 +10°C° 0.1 mm 2 mps 711 mmHg 95%
    21:00 +9°C° 0.1 mm 2 mps 712 mmHg 96%
    22:00 +9°C° 0.1 mm 2 mps 712 mmHg 98%
    23:00 +8°C° 0.1 mm 2 mps 713 mmHg 98%

    29 May, Wednesday

    Time Temperature Precipitation Wind Pressure Humidity
    00:00 +8°C° 0.1 mm 2 mps 713 mmHg 98%
    01:00 +8°C° 0.1 mm 3 mps 713 mmHg 97%
    02:00 +8°C° 0.1 mm 3 mps 713 mmHg 97%
    03:00 +7°C° 0.1 mm 3 mps 713 mmHg 97%
    04:00 +7°C° 0.1 mm 3 mps 714 mmHg 97%
    05:00 +6°C° 0 mm 4 mps 714 mmHg 96%
    06:00 +5°C° 0 mm 4 mps 714 mmHg 94%
    07:00 +5°C° 0 mm 4 mps 714 mmHg 93%
    08:00 +7°C° 0 mm 3 mps 715 mmHg 89%
    09:00 +8°C° 0 mm 3 mps 715 mmHg 85%
    10:00 +8°C° 0 mm 3 mps 715 mmHg 81%
    11:00 +9°C° 0 mm 3 mps 715 mmHg 77%
    12:00 +10°C° 0 mm 2 mps 715 mmHg 72%
    13:00 +12°C° 0 mm 2 mps 715 mmHg 68%
    14:00 +12°C° 0.1 mm 2 mps 715 mmHg 70%
    15:00 +12°C° 0.1 mm 1 mps 715 mmHg 72%
    16:00 +12°C° 0.1 mm 1 mps 715 mmHg 74%
    17:00 +12°C° 0.1 mm 1 mps 715 mmHg 77%
    18:00 +11°C° 0.1 mm 0 mps 715 mmHg 79%
    19:00 +11°C° 0.1 mm 0 mps 715 mmHg 82%
    20:00 +9°C° 0.1 mm 0 mps 716 mmHg 86%
    21:00 +9°C° 0.1 mm 1 mps 716 mmHg 90%
    22:00 +7°C° 0.1 mm 1 mps 716 mmHg 94%
    23:00 +7°C° 0 mm 1 mps 716 mmHg 94%
    Show more